| time (UTC) | temp F | wind direction | speed MPH | gust MPH | rain 1hr in | rain 24hr in | rain mn in | humidity % | barometer mb |
| 20260906161426 | 84 | 112 | 2.0 | 2.0 | 0.00 | 0.00 | 0.00 | 63 | 1006.0 |
| 20260906161009 | 86 | 68 | 4.0 | 5.0 | 0.00 | 0.00 | 0.00 | 63 | 1006.0 |
| 20260906160552 | 86 | 90 | 2.0 | 2.0 | 0.00 | 0.00 | 0.00 | 58 | 1006.0 |
| 20260906160121 | 86 | 90 | 2.0 | 2.0 | 0.00 | 0.00 | 0.00 | 62 | 1006.0 |
| 20260906155651 | 85 | 68 | 0.0 | 0.0 | 0.00 | 0.00 | 0.00 | 58 | 1006.0 |
| 20260906155220 | 84 | 68 | 1.0 | 1.0 | 0.00 | 0.00 | 0.00 | 59 | 1006.0 |
| 20260906154749 | 84 | 68 | 0.0 | 0.0 | 0.00 | 0.00 | 0.00 | 60 | 1006.0 |
| 20260906153258 | 84 | 68 | 2.0 | 2.0 | 0.00 | 0.00 | 0.00 | 64 | 1006.0 |
| 20260906152827 | 82 | 90 | 2.0 | 2.0 | 0.00 | 0.00 | 0.00 | 66 | 1006.0 |
| 20260906152355 | 82 | 112 | 2.0 | 2.0 | 0.00 | 0.00 | 0.00 | 64 | 1006.0 |
| 20260906151937 | 81 | 135 | 2.0 | 2.0 | 0.00 | 0.00 | 0.00 | 72 | 1006.0 |
| 20260906151505 | 82 | 135 | 1.0 | 1.0 | 0.00 | 0.00 | 0.00 | 74 | 1006.0 |
| 20260906151035 | 83 | 135 | 1.0 | 1.0 | 0.00 | 0.00 | 0.00 | 71 | 1006.0 |
| 20260906150603 | 84 | 180 | 1.0 | 1.0 | 0.00 | 0.00 | 0.00 | 67 | 1006.0 |
| 20260906150147 | 84 | 180 | 2.0 | 2.0 | 0.00 | 0.00 | 0.00 | 66 | 1006.0 |
| 20260906145713 | 84 | 112 | 0.0 | 0.0 | 0.00 | 0.00 | 0.00 | 66 | 1006.0 |
| 20260906145256 | 83 | 112 | 0.0 | 0.0 | 0.00 | 0.00 | 0.00 | 67 | 1006.0 |
| 20260906144840 | 83 | 112 | 0.0 | 0.0 | 0.00 | 0.00 | 0.00 | 69 | 1006.0 |
| 20260906144423 | 83 | 112 | 0.0 | 0.0 | 0.00 | 0.00 | 0.00 | 66 | 1006.0 |
| 20260906144006 | 82 | 158 | 1.0 | 1.0 | 0.00 | 0.00 | 0.00 | 66 | 1006.0 |
| 20260906143549 | 82 | 180 | 1.0 | 1.0 | 0.00 | 0.00 | 0.00 | 71 | 1006.0 |
| 20260906143120 | 82 | 202 | 2.0 | 2.0 | 0.00 | 0.00 | 0.00 | 72 | 1006.0 |
| 20260906142703 | 82 | 202 | 1.0 | 1.0 | 0.00 | 0.00 | 0.00 | 68 | 1006.0 |
| 20260906142230 | 79 | 202 | 0.0 | 0.0 | 0.00 | 0.00 | 0.00 | 73 | 1006.0 |
| 20260906141813 | 77 | 202 | 0.0 | 0.0 | 0.00 | 0.00 | 0.00 | 77 | 1006.0 |
| 20260906141357 | 77 | 202 | 2.0 | 2.0 | 0.00 | 0.00 | 0.00 | 79 | 1006.0 |
| 20260906140938 | 76 | 202 | 1.0 | 1.0 | 0.00 | 0.00 | 0.00 | 80 | 1006.0 |
| 20260906140521 | 76 | 202 | 1.0 | 1.0 | 0.00 | 0.00 | 0.00 | 81 | 1006.0 |
| 20260906140050 | 76 | 180 | 1.0 | 1.0 | 0.00 | 0.00 | 0.00 | 81 | 1006.0 |
| 20260906135632 | 77 | 180 | 2.0 | 2.0 | 0.00 | 0.00 | 0.00 | 81 | 1006.0 |
| 20260906135216 | 78 | 68 | 1.0 | 1.0 | 0.00 | 0.00 | 0.00 | 80 | 1006.0 |
| 20260906134759 | 78 | 68 | 2.0 | 2.0 | 0.00 | 0.00 | 0.00 | 76 | 1006.0 |
| 20260906134344 | 78 | 68 | 0.0 | 0.0 | 0.00 | 0.00 | 0.00 | 77 | 1006.0 |
| 20260906133927 | 76 | 68 | 0.0 | 0.0 | 0.00 | 0.00 | 0.00 | 77 | 1006.0 |
| 20260906133510 | 75 | 68 | 2.0 | 2.0 | 0.00 | 0.00 | 0.00 | 80 | 1006.0 |
| 20260906133055 | 74 | 68 | 0.0 | 0.0 | 0.00 | 0.00 | 0.00 | 83 | 1006.0 |
| 20260906132637 | 73 | 68 | 0.0 | 0.0 | 0.00 | 0.00 | 0.00 | 85 | 1006.0 |
| 20260906132206 | 73 | 68 | 1.0 | 1.0 | 0.00 | 0.00 | 0.00 | 86 | 1006.0 |
| 20260906131734 | 73 | 68 | 0.0 | 0.0 | 0.00 | 0.00 | 0.00 | 87 | 1006.0 |
| 20260906131318 | 72 | 68 | 0.0 | 0.0 | 0.00 | 0.00 | 0.00 | 87 | 1006.0 |
| 20260906130413 | 72 | 68 | 0.0 | 0.0 | 0.00 | 0.00 | 0.00 | 88 | 1006.0 |
| 20260906125942 | 72 | 68 | 0.0 | 0.0 | 0.00 | 0.00 | 0.00 | 89 | 1006.0 |
| 20260906125037 | 71 | 68 | 0.0 | 0.0 | 0.00 | 0.00 | 0.00 | 89 | 1006.0 |
| 20260906124620 | 71 | 68 | 0.0 | 0.0 | 0.00 | 0.00 | 0.00 | 89 | 1006.0 |
| 20260906124148 | 71 | 68 | 0.0 | 0.0 | 0.00 | 0.00 | 0.00 | 88 | 1006.0 |
| 20260906123717 | 71 | 68 | 0.0 | 0.0 | 0.00 | 0.00 | 0.00 | 89 | 1006.0 |
| 20260906122813 | 71 | 68 | 1.0 | 1.0 | 0.00 | 0.00 | 0.00 | 89 | 1006.0 |
| 20260906122357 | 71 | 68 | 0.0 | 0.0 | 0.00 | 0.00 | 0.00 | 89 | 1006.0 |
| 20260906121925 | 71 | 68 | 0.0 | 0.0 | 0.00 | 0.00 | 0.00 | 89 | 1006.0 |
| 20260906121505 | 71 | 68 | 0.0 | 0.0 | 0.00 | 0.00 | 0.00 | 89 | 1006.0 |
| 20260906121018 | 71 | 68 | 0.0 | 0.0 | 0.00 | 0.00 | 0.00 | 89 | 1006.0 |
| 20260906120547 | 71 | 68 | 0.0 | 0.0 | 0.00 | 0.00 | 0.00 | 90 | 1006.0 |
| 20260906115157 | 70 | 68 | 0.0 | 0.0 | 0.00 | 0.00 | 0.00 | 90 | 1006.0 |
| 20260906114740 | 70 | 68 | 0.0 | 0.0 | 0.00 | 0.00 | 0.00 | 90 | 1006.0 |
| 20260906114324 | 70 | 68 | 0.0 | 0.0 | 0.00 | 0.00 | 0.00 | 91 | 1005.0 |
| 20260906113406 | 70 | 68 | 0.0 | 0.0 | 0.00 | 0.00 | 0.00 | 91 | 1005.0 |
| 20260906112920 | 70 | 68 | 0.0 | 0.0 | 0.00 | 0.00 | 0.00 | 91 | 1005.0 |
| 20260906111947 | 70 | 45 | 0.0 | 0.0 | 0.00 | 0.00 | 0.00 | 91 | 1005.0 |
| 20260906111532 | 70 | 45 | 0.0 | 0.0 | 0.00 | 0.00 | 0.00 | 91 | 1005.0 |
| 20260906111116 | 70 | 45 | 2.0 | 2.0 | 0.00 | 0.00 | 0.00 | 91 | 1005.0 |
| 20260906110700 | 70 | 22 | 0.0 | 0.0 | 0.00 | 0.00 | 0.00 | 91 | 1005.0 |
| 20260906110230 | 70 | 22 | 0.0 | 0.0 | 0.00 | 0.00 | 0.00 | 92 | 1005.0 |
| 20260906105815 | 70 | 22 | 0.0 | 0.0 | 0.00 | 0.00 | 0.00 | 92 | 1005.0 |
| 20260906105344 | 70 | 22 | 0.0 | 0.0 | 0.00 | 0.00 | 0.00 | 92 | 1005.0 |
| 20260906104441 | 70 | 22 | 0.0 | 0.0 | 0.00 | 0.00 | 0.00 | 92 | 1005.0 |
| 20260906104024 | 70 | 22 | 0.0 | 0.0 | 0.00 | 0.00 | 0.00 | 92 | 1005.0 |
| 20260906103609 | 70 | 22 | 0.0 | 0.0 | 0.00 | 0.00 | 0.00 | 92 | 1005.0 |
| 20260906103151 | 70 | 22 | 0.0 | 0.0 | 0.00 | 0.00 | 0.00 | 92 | 1005.0 |
| 20260906102650 | 70 | 22 | 0.0 | 0.0 | 0.00 | 0.00 | 0.00 | 91 | 1005.0 |
| 20260906102219 | 70 | 22 | 0.0 | 0.0 | 0.00 | 0.00 | 0.00 | 91 | 1005.0 |
| 20260906101803 | 70 | 22 | 1.0 | 1.0 | 0.00 | 0.00 | 0.00 | 92 | 1005.0 |
| 20260906101334 | 71 | 22 | 0.0 | 0.0 | 0.00 | 0.00 | 0.00 | 91 | 1005.0 |
| 20260906100903 | 71 | 22 | 0.0 | 0.0 | 0.00 | 0.00 | 0.00 | 90 | 1005.0 |
| 20260906100432 | 70 | 22 | 0.0 | 0.0 | 0.00 | 0.00 | 0.00 | 90 | 1005.0 |
| 20260906100016 | 70 | 22 | 0.0 | 0.0 | 0.00 | 0.00 | 0.00 | 92 | 1004.0 |
| 20260906095529 | 70 | 68 | 0.0 | 0.0 | 0.00 | 0.00 | 0.00 | 91 | 1004.0 |
| 20260906095112 | 70 | 68 | 0.0 | 0.0 | 0.00 | 0.00 | 0.00 | 91 | 1004.0 |
| 20260906093738 | 70 | 68 | 0.0 | 0.0 | 0.00 | 0.00 | 0.00 | 91 | 1005.0 |
| 20260906093322 | 70 | 68 | 0.0 | 0.0 | 0.00 | 0.00 | 0.00 | 91 | 1005.0 |
| 20260906092905 | 70 | 68 | 0.0 | 0.0 | 0.00 | 0.00 | 0.00 | 91 | 1004.0 |
| 20260906092450 | 70 | 68 | 0.0 | 0.0 | 0.00 | 0.00 | 0.00 | 91 | 1004.0 |
| 20260906092019 | 70 | 68 | 0.0 | 0.0 | 0.00 | 0.00 | 0.00 | 91 | 1004.0 |
| 20260906091549 | 70 | 68 | 0.0 | 0.0 | 0.00 | 0.00 | 0.00 | 91 | 1004.0 |
| 20260906091133 | 70 | 68 | 0.0 | 0.0 | 0.00 | 0.00 | 0.00 | 91 | 1004.0 |
| 20260906090659 | 70 | 68 | 0.0 | 0.0 | 0.00 | 0.00 | 0.00 | 91 | 1004.0 |
| 20260906090211 | 70 | 68 | 0.0 | 0.0 | 0.00 | 0.00 | 0.00 | 92 | 1004.0 |
| 20260906085739 | 70 | 68 | 0.0 | 0.0 | 0.00 | 0.00 | 0.00 | 92 | 1004.0 |
| 20260906085322 | 70 | 68 | 0.0 | 0.0 | 0.00 | 0.00 | 0.00 | 92 | 1004.0 |
| 20260906084002 | 70 | 68 | 0.0 | 0.0 | 0.00 | 0.00 | 0.00 | 92 | 1004.0 |
| 20260906083531 | 70 | 90 | 1.0 | 1.0 | 0.00 | 0.00 | 0.00 | 92 | 1004.0 |
| 20260906083114 | 70 | 90 | 3.0 | 3.0 | 0.00 | 0.00 | 0.00 | 92 | 1004.0 |
| 20260906082642 | 70 | 68 | 1.0 | 1.0 | 0.00 | 0.00 | 0.00 | 92 | 1004.0 |
| 20260906082211 | 70 | 68 | 1.0 | 1.0 | 0.00 | 0.00 | 0.00 | 92 | 1004.0 |
| 20260906081252 | 70 | 292 | 1.0 | 1.0 | 0.00 | 0.00 | 0.00 | 93 | 1004.0 |
| 20260906080821 | 70 | 292 | 0.0 | 0.0 | 0.00 | 0.00 | 0.00 | 93 | 1004.0 |
| 20260906080352 | 70 | 292 | 0.0 | 0.0 | 0.00 | 0.00 | 0.00 | 93 | 1004.0 |
| 20260906075935 | 70 | 292 | 0.0 | 0.0 | 0.00 | 0.00 | 0.00 | 93 | 1005.0 |
| 20260906075518 | 70 | 292 | 1.0 | 1.0 | 0.00 | 0.00 | 0.00 | 93 | 1005.0 |
| 20260906075046 | 70 | 292 | 0.0 | 0.0 | 0.00 | 0.00 | 0.00 | 93 | 1005.0 |
| 20260906074631 | 70 | 292 | 0.0 | 0.0 | 0.00 | 0.00 | 0.00 | 93 | 1005.0 |
| 20260906074214 | 70 | 292 | 0.0 | 0.0 | 0.00 | 0.00 | 0.00 | 93 | 1005.0 |
| 20260906073325 | 70 | 292 | 0.0 | 0.0 | 0.00 | 0.00 | 0.00 | 93 | 1005.0 |
| 20260906072908 | 70 | 292 | 0.0 | 0.0 | 0.00 | 0.00 | 0.00 | 93 | 1005.0 |
| 20260906072437 | 70 | 292 | 0.0 | 0.0 | 0.00 | 0.00 | 0.00 | 93 | 1005.0 |
| 20260906071549 | 70 | 22 | 0.0 | 0.0 | 0.00 | 0.00 | 0.00 | 93 | 1004.0 |
| 20260906071133 | 70 | 22 | 0.0 | 0.0 | 0.00 | 0.00 | 0.00 | 93 | 1004.0 |
| 20260906065727 | 70 | 22 | 0.0 | 0.0 | 0.00 | 0.00 | 0.00 | 93 | 1005.0 |
| 20260906065310 | 70 | 22 | 0.0 | 0.0 | 0.00 | 0.00 | 0.00 | 93 | 1005.0 |
| 20260906064838 | 70 | 22 | 0.0 | 0.0 | 0.00 | 0.00 | 0.00 | 93 | 1005.0 |
| 20260906063934 | 70 | 22 | 0.0 | 0.0 | 0.00 | 0.00 | 0.00 | 92 | 1005.0 |
| 20260906063518 | 70 | 22 | 0.0 | 0.0 | 0.00 | 0.00 | 0.00 | 92 | 1005.0 |
| 20260906063100 | 70 | 22 | 0.0 | 0.0 | 0.00 | 0.00 | 0.00 | 92 | 1005.0 |
| 20260906062645 | 70 | 315 | 0.0 | 0.0 | 0.00 | 0.00 | 0.00 | 92 | 1005.0 |
| 20260906061323 | 70 | 292 | 0.0 | 0.0 | 0.00 | 0.00 | 0.00 | 92 | 1005.0 |
| 20260906060906 | 70 | 292 | 0.0 | 0.0 | 0.00 | 0.00 | 0.00 | 92 | 1005.0 |
| 20260906060451 | 70 | 292 | 0.0 | 0.0 | 0.00 | 0.00 | 0.00 | 92 | 1005.0 |
| 20260906060035 | 70 | 292 | 0.0 | 0.0 | 0.00 | 0.00 | 0.00 | 92 | 1005.0 |
| 20260906055618 | 70 | 292 | 0.0 | 0.0 | 0.00 | 0.00 | 0.00 | 92 | 1005.0 |
| 20260906055203 | 70 | 292 | 0.0 | 0.0 | 0.00 | 0.00 | 0.00 | 92 | 1005.0 |
| 20260906054748 | 70 | 292 | 0.0 | 0.0 | 0.00 | 0.00 | 0.00 | 92 | 1005.0 |
| 20260906054302 | 70 | 292 | 0.0 | 0.0 | 0.00 | 0.00 | 0.00 | 92 | 1005.0 |
| 20260906053846 | 70 | 292 | 0.0 | 0.0 | 0.00 | 0.00 | 0.00 | 92 | 1005.0 |
| 20260906053416 | 70 | 292 | 0.0 | 0.0 | 0.00 | 0.00 | 0.00 | 92 | 1005.0 |
| 20260906052945 | 70 | 292 | 0.0 | 0.0 | 0.00 | 0.00 | 0.00 | 92 | 1005.0 |
| 20260906052043 | 70 | 292 | 0.0 | 0.0 | 0.00 | 0.00 | 0.00 | 92 | 1005.0 |
| 20260906050712 | 71 | 292 | 0.0 | 0.0 | 0.00 | 0.00 | 0.00 | 92 | 1005.0 |
| 20260906045824 | 71 | 292 | 0.0 | 0.0 | 0.00 | 0.00 | 0.00 | 92 | 1005.0 |
| 20260906045407 | 71 | 292 | 0.0 | 0.0 | 0.00 | 0.00 | 0.00 | 92 | 1005.0 |
| 20260906044951 | 71 | 292 | 0.0 | 0.0 | 0.00 | 0.00 | 0.00 | 92 | 1005.0 |
| 20260906044520 | 71 | 292 | 0.0 | 0.0 | 0.00 | 0.00 | 0.00 | 92 | 1005.0 |
| 20260906044104 | 71 | 292 | 0.0 | 0.0 | 0.00 | 0.00 | 0.00 | 92 | 1005.0 |
| 20260906042718 | 70 | 292 | 0.0 | 0.0 | 0.00 | 0.00 | 0.00 | 93 | 1005.0 |
| 20260906042302 | 70 | 292 | 0.0 | 0.0 | 0.00 | 0.00 | 0.00 | 92 | 1005.0 |
| 20260906041846 | 70 | 292 | 0.0 | 0.0 | 0.00 | 0.00 | 0.00 | 92 | 1005.0 |
| 20260906040928 | 70 | 292 | 0.0 | 0.0 | 0.00 | 0.00 | 0.00 | 93 | 1005.0 |
| 20260906040512 | 70 | 292 | 0.0 | 0.0 | 0.00 | 0.00 | 0.00 | 92 | 1005.0 |
| 20260906040056 | 70 | 292 | 1.0 | 1.0 | 0.00 | 0.00 | 0.25 | 92 | 1005.0 |
| 20260906035624 | 70 | 292 | 0.0 | 0.0 | 0.00 | 0.00 | 0.25 | 92 | 1005.0 |
| 20260906035207 | 70 | 292 | 0.0 | 0.0 | 0.00 | 0.00 | 0.25 | 92 | 1005.0 |
| 20260906034752 | 70 | 292 | 0.0 | 0.0 | 0.00 | 0.00 | 0.25 | 92 | 1005.0 |
| 20260906033820 | 70 | 292 | 0.0 | 0.0 | 0.00 | 0.00 | 0.25 | 92 | 1005.0 |
| 20260906033400 | 70 | 292 | 0.0 | 0.0 | 0.00 | 0.00 | 0.25 | 92 | 1005.0 |
| 20260906032944 | 70 | 292 | 0.0 | 0.0 | 0.00 | 0.00 | 0.25 | 92 | 1005.0 |
| 20260906032513 | 71 | 292 | 0.0 | 0.0 | 0.00 | 0.00 | 0.25 | 92 | 1005.0 |
| 20260906032043 | 71 | 292 | 0.0 | 0.0 | 0.00 | 0.00 | 0.25 | 93 | 1005.0 |
| 20260906031555 | 71 | 292 | 0.0 | 0.0 | 0.00 | 0.00 | 0.25 | 92 | 1005.0 |
| 20260906031140 | 71 | 292 | 0.0 | 0.0 | 0.00 | 0.00 | 0.25 | 92 | 1005.0 |
| 20260906030651 | 71 | 292 | 0.0 | 0.0 | 0.00 | 0.00 | 0.25 | 92 | 1005.0 |
| 20260906030236 | 71 | 292 | 0.0 | 0.0 | 0.00 | 0.00 | 0.25 | 92 | 1005.0 |
| 20260906025346 | 71 | 292 | 0.0 | 0.0 | 0.00 | 0.00 | 0.25 | 92 | 1005.0 |
| 20260906024914 | 71 | 292 | 0.0 | 0.0 | 0.00 | 0.00 | 0.25 | 92 | 1005.0 |
| 20260906024427 | 71 | 292 | 0.0 | 0.0 | 0.00 | 0.00 | 0.25 | 92 | 1005.0 |
| 20260906023954 | 71 | 292 | 0.0 | 0.0 | 0.00 | 0.00 | 0.25 | 92 | 1005.0 |
| 20260906023538 | 71 | 292 | 0.0 | 0.0 | 0.00 | 0.00 | 0.25 | 91 | 1005.0 |
| 20260906023107 | 71 | 292 | 0.0 | 0.0 | 0.00 | 0.00 | 0.25 | 91 | 1005.0 |
| 20260906022636 | 71 | 292 | 0.0 | 0.0 | 0.00 | 0.00 | 0.25 | 91 | 1005.0 |
| 20260906022204 | 72 | 292 | 0.0 | 0.0 | 0.00 | 0.00 | 0.25 | 91 | 1005.0 |
| 20260906021733 | 72 | 292 | 0.0 | 0.0 | 0.00 | 0.00 | 0.25 | 91 | 1005.0 |
| 20260906021316 | 72 | 292 | 0.0 | 0.0 | 0.00 | 0.00 | 0.25 | 91 | 1005.0 |
| 20260906020357 | 72 | 292 | 0.0 | 0.0 | 0.00 | 0.00 | 0.25 | 90 | 1005.0 |
| 20260906015941 | 73 | 292 | 0.0 | 0.0 | 0.00 | 0.00 | 0.25 | 90 | 1005.0 |
| 20260906015509 | 73 | 292 | 0.0 | 0.0 | 0.00 | 0.00 | 0.25 | 89 | 1005.0 |
| 20260906014621 | 74 | 292 | 1.0 | 1.0 | 0.00 | 0.00 | 0.25 | 87 | 1005.0 |
| 20260906014149 | 75 | 292 | 0.0 | 0.0 | 0.00 | 0.00 | 0.25 | 86 | 1005.0 |
| 20260906013733 | 74 | 292 | 0.0 | 0.0 | 0.00 | 0.00 | 0.25 | 85 | 1005.0 |
| 20260906013259 | 74 | 270 | 0.0 | 0.0 | 0.00 | 0.00 | 0.25 | 85 | 1005.0 |
| 20260906012842 | 74 | 270 | 0.0 | 0.0 | 0.00 | 0.00 | 0.25 | 87 | 1005.0 |
| 20260906012411 | 75 | 270 | 0.0 | 0.0 | 0.00 | 0.00 | 0.25 | 85 | 1005.0 |
| 20260906011939 | 75 | 270 | 0.0 | 0.0 | 0.00 | 0.00 | 0.25 | 84 | 1005.0 |
| 20260906011036 | 74 | 270 | 1.0 | 1.0 | 0.00 | 0.00 | 0.25 | 87 | 1005.0 |
| 20260906010133 | 75 | 270 | 0.0 | 0.0 | 0.00 | 0.00 | 0.25 | 85 | 1005.0 |
| 20260906005716 | 74 | 270 | 0.0 | 0.0 | 0.00 | 0.00 | 0.25 | 85 | 1005.0 |
| 20260906005244 | 74 | 270 | 0.0 | 0.0 | 0.00 | 0.00 | 0.25 | 86 | 1005.0 |
| 20260906004813 | 74 | 270 | 0.0 | 0.0 | 0.00 | 0.00 | 0.25 | 87 | 1005.0 |
| 20260906004340 | 74 | 270 | 0.0 | 0.0 | 0.00 | 0.00 | 0.25 | 86 | 1005.0 |
| 20260906003923 | 74 | 270 | 0.0 | 0.0 | 0.00 | 0.00 | 0.25 | 86 | 1005.0 |
| 20260906003506 | 75 | 270 | 0.0 | 0.0 | 0.00 | 0.00 | 0.25 | 85 | 1005.0 |
| 20260906002602 | 75 | 270 | 0.0 | 0.0 | 0.00 | 0.00 | 0.25 | 85 | 1004.0 |
| 20260906002147 | 75 | 270 | 0.0 | 0.0 | 0.00 | 0.00 | 0.25 | 84 | 1004.0 |
| 20260906001729 | 75 | 270 | 0.0 | 0.0 | 0.00 | 0.00 | 0.25 | 83 | 1004.0 |
| 20260906001257 | 75 | 270 | 0.0 | 0.0 | 0.00 | 0.00 | 0.25 | 85 | 1004.0 |
| 20260906000841 | 76 | 270 | 0.0 | 0.0 | 0.00 | 0.00 | 0.25 | 84 | 1004.0 |
| 20260906000411 | 76 | 270 | 0.0 | 0.0 | 0.00 | 0.00 | 0.25 | 83 | 1004.0 |
| 20260905235952 | 76 | 270 | 0.0 | 0.0 | 0.00 | 0.00 | 0.25 | 83 | 1004.0 |
| 20260905235536 | 76 | 270 | 1.0 | 1.0 | 0.00 | 0.00 | 0.25 | 81 | 1004.0 |
| 20260905235047 | 77 | 248 | 0.0 | 0.0 | 0.00 | 0.00 | 0.25 | 82 | 1004.0 |
| 20260905234631 | 77 | 248 | 0.0 | 0.0 | 0.00 | 0.00 | 0.25 | 81 | 1004.0 |
| 20260905234216 | 78 | 248 | 0.0 | 0.0 | 0.00 | 0.00 | 0.25 | 80 | 1004.0 |
| 20260905233801 | 77 | 270 | 0.0 | 0.0 | 0.00 | 0.00 | 0.25 | 78 | 1004.0 |
| 20260905233345 | 77 | 270 | 1.0 | 1.0 | 0.00 | 0.00 | 0.25 | 80 | 1004.0 |
| 20260905231547 | 78 | 248 | 0.0 | 0.0 | 0.00 | 0.00 | 0.25 | 78 | 1004.0 |
| 20260905231119 | 79 | 248 | 0.0 | 0.0 | 0.00 | 0.00 | 0.25 | 78 | 1004.0 |
| 20260905230219 | 81 | 248 | 2.0 | 2.0 | 0.00 | 0.00 | 0.25 | 75 | 1004.0 |
| 20260905225747 | 81 | 248 | 0.0 | 0.0 | 0.00 | 0.00 | 0.25 | 72 | 1004.0 |
| 20260905225317 | 82 | 248 | 0.0 | 0.0 | 0.00 | 0.00 | 0.25 | 72 | 1004.0 |
| 20260905224846 | 82 | 202 | 0.0 | 0.0 | 0.00 | 0.00 | 0.25 | 69 | 1004.0 |
| 20260905224429 | 82 | 180 | 0.0 | 0.0 | 0.00 | 0.00 | 0.25 | 69 | 1004.0 |
| 20260905224010 | 84 | 180 | 0.0 | 0.0 | 0.00 | 0.00 | 0.25 | 68 | 1004.0 |
| 20260905223539 | 85 | 180 | 1.0 | 1.0 | 0.00 | 0.00 | 0.25 | 68 | 1004.0 |
| 20260905223125 | 85 | 135 | 1.0 | 1.0 | 0.00 | 0.00 | 0.25 | 63 | 1004.0 |
| 20260905222710 | 85 | 158 | 0.0 | 0.0 | 0.00 | 0.00 | 0.25 | 63 | 1004.0 |
| 20260905222255 | 86 | 158 | 0.0 | 0.0 | 0.00 | 0.00 | 0.25 | 65 | 1004.0 |
| 20260905221839 | 87 | 158 | 0.0 | 0.0 | 0.00 | 0.00 | 0.25 | 63 | 1004.0 |
| 20260905220938 | 88 | 270 | 0.0 | 0.0 | 0.00 | 0.00 | 0.25 | 60 | 1004.0 |
| 20260905220520 | 88 | 270 | 2.0 | 2.0 | 0.00 | 0.00 | 0.25 | 59 | 1004.0 |
| 20260905220046 | 88 | 202 | 1.0 | 1.0 | 0.00 | 0.00 | 0.25 | 61 | 1004.0 |
| 20260905215630 | 88 | 202 | 0.0 | 0.0 | 0.00 | 0.00 | 0.25 | 60 | 1004.0 |
| 20260905215159 | 88 | 202 | 1.0 | 1.0 | 0.00 | 0.00 | 0.25 | 58 | 1004.0 |
| 20260905214312 | 88 | 292 | 2.0 | 2.0 | 0.00 | 0.00 | 0.25 | 58 | 1004.0 |
| 20260905212943 | 88 | 270 | 0.0 | 0.0 | 0.00 | 0.00 | 0.25 | 62 | 1003.0 |
| 20260905212044 | 89 | 68 | 0.0 | 0.0 | 0.00 | 0.00 | 0.25 | 61 | 1003.0 |
| 20260905211614 | 88 | 45 | 0.0 | 0.0 | 0.00 | 0.00 | 0.25 | 58 | 1003.0 |
| 20260905211158 | 88 | 22 | 1.0 | 1.0 | 0.00 | 0.00 | 0.25 | 59 | 1003.0 |
| 20260905210743 | 88 | 90 | 0.0 | 0.0 | 0.00 | 0.00 | 0.25 | 56 | 1003.0 |
| 20260905204925 | 88 | 90 | 2.0 | 2.0 | 0.00 | 0.00 | 0.25 | 52 | 1003.0 |
| 20260905204510 | 88 | 112 | 5.0 | 5.0 | 0.00 | 0.00 | 0.25 | 51 | 1003.0 |
| 20260905204053 | 88 | 112 | 2.0 | 2.0 | 0.00 | 0.00 | 0.25 | 50 | 1003.0 |
| 20260905203637 | 88 | 112 | 2.0 | 2.0 | 0.00 | 0.00 | 0.25 | 59 | 1003.0 |
| 20260905203223 | 88 | 68 | 1.0 | 1.0 | 0.00 | 0.00 | 0.25 | 59 | 1003.0 |
| 20260905202807 | 88 | 90 | 0.0 | 0.0 | 0.00 | 0.00 | 0.25 | 53 | 1003.0 |
| 20260905202353 | 88 | 90 | 4.0 | 5.0 | 0.00 | 0.00 | 0.25 | 53 | 1003.0 |
| 20260905201939 | 88 | 68 | 2.0 | 2.0 | 0.00 | 0.00 | 0.25 | 55 | 1003.0 |
| 20260905201524 | 88 | 90 | 2.0 | 2.0 | 0.00 | 0.00 | 0.25 | 55 | 1004.0 |
| 20260905201053 | 88 | 90 | 0.0 | 0.0 | 0.00 | 0.00 | 0.25 | 54 | 1004.0 |
| 20260905200154 | 87 | 90 | 2.0 | 2.0 | 0.00 | 0.00 | 0.25 | 54 | 1004.0 |
| 20260905195724 | 87 | 68 | 2.0 | 2.0 | 0.00 | 0.00 | 0.25 | 53 | 1004.0 |
| 20260905195307 | 87 | 68 | 1.0 | 1.0 | 0.00 | 0.00 | 0.25 | 55 | 1004.0 |
| 20260905194404 | 88 | 90 | 2.0 | 2.0 | 0.00 | 0.00 | 0.25 | 62 | 1004.0 |
| 20260905193500 | 88 | 45 | 4.0 | 4.0 | 0.00 | 0.00 | 0.25 | 52 | 1004.0 |
| 20260905193043 | 88 | 112 | 3.0 | 4.0 | 0.00 | 0.00 | 0.25 | 57 | 1004.0 |
| 20260905192613 | 88 | 90 | 0.0 | 0.0 | 0.00 | 0.00 | 0.25 | 58 | 1004.0 |
| 20260905192142 | 89 | 112 | 3.0 | 3.0 | 0.00 | 0.00 | 0.25 | 57 | 1004.0 |
| 20260905191726 | 89 | 112 | 2.0 | 2.0 | 0.00 | 0.00 | 0.25 | 56 | 1004.0 |
| 20260905191255 | 89 | 90 | 0.0 | 0.0 | 0.00 | 0.00 | 0.25 | 52 | 1004.0 |
| 20260905190840 | 89 | 90 | 0.0 | 0.0 | 0.00 | 0.00 | 0.25 | 55 | 1004.0 |
| 20260905190408 | 89 | 180 | 1.0 | 1.0 | 0.00 | 0.00 | 0.25 | 57 | 1004.0 |
| 20260905185938 | 89 | 248 | 1.0 | 1.0 | 0.00 | 0.00 | 0.25 | 55 | 1005.0 |
| 20260905185522 | 89 | 180 | 0.0 | 0.0 | 0.00 | 0.00 | 0.25 | 57 | 1005.0 |
| 20260905185051 | 88 | 68 | 0.0 | 0.0 | 0.00 | 0.00 | 0.25 | 58 | 1005.0 |
| 20260905184637 | 88 | 248 | 1.0 | 1.0 | 0.00 | 0.00 | 0.25 | 59 | 1005.0 |
| 20260905184222 | 88 | 270 | 2.0 | 2.0 | 0.00 | 0.00 | 0.25 | 61 | 1005.0 |
| 20260905183735 | 87 | 270 | 2.0 | 2.0 | 0.00 | 0.00 | 0.25 | 60 | 1005.0 |
| 20260905183319 | 86 | 292 | 0.0 | 0.0 | 0.00 | 0.00 | 0.25 | 63 | 1005.0 |
| 20260905182900 | 86 | 90 | 0.0 | 0.0 | 0.00 | 0.00 | 0.25 | 64 | 1005.0 |
| 20260905182014 | 85 | 68 | 2.0 | 2.0 | 0.00 | 0.00 | 0.25 | 67 | 1005.0 |
| 20260905181554 | 85 | 90 | 2.0 | 2.0 | 0.00 | 0.00 | 0.25 | 69 | 1005.0 |
| 20260905181123 | 85 | 90 | 0.0 | 0.0 | 0.00 | 0.00 | 0.25 | 65 | 1005.0 |
| 20260905180706 | 84 | 90 | 0.0 | 0.0 | 0.00 | 0.00 | 0.25 | 67 | 1005.0 |
| 20260905175804 | 84 | 90 | 2.0 | 2.0 | 0.00 | 0.00 | 0.25 | 69 | 1005.0 |
| 20260905175349 | 84 | 112 | 2.0 | 2.0 | 0.00 | 0.00 | 0.25 | 66 | 1005.0 |
| 20260905174934 | 84 | 68 | 1.0 | 1.0 | 0.00 | 0.00 | 0.25 | 66 | 1005.0 |
| 20260905174050 | 83 | 90 | 2.0 | 2.0 | 0.00 | 0.00 | 0.25 | 68 | 1006.0 |
| 20260905173634 | 83 | 68 | 2.0 | 2.0 | 0.00 | 0.00 | 0.25 | 70 | 1006.0 |
| 20260905173204 | 82 | 68 | 0.0 | 0.0 | 0.00 | 0.00 | 0.25 | 69 | 1006.0 |
| 20260905172747 | 82 | 90 | 3.0 | 4.0 | 0.00 | 0.00 | 0.25 | 71 | 1006.0 |
| 20260905171900 | 81 | 270 | 1.0 | 1.0 | 0.00 | 0.00 | 0.25 | 78 | 1006.0 |
| 20260905171444 | 81 | 270 | 0.0 | 0.0 | 0.00 | 0.00 | 0.25 | 74 | 1006.0 |
| 20260905170542 | 81 | 248 | 0.0 | 0.0 | 0.00 | 0.00 | 0.25 | 76 | 1006.0 |
| 20260905170127 | 81 | 248 | 0.0 | 0.0 | 0.00 | 0.00 | 0.25 | 74 | 1006.0 |
| 20260905165711 | 81 | 248 | 2.0 | 2.0 | 0.00 | 0.00 | 0.25 | 76 | 1006.0 |
| 20260905165253 | 80 | 315 | 0.0 | 0.0 | 0.00 | 0.00 | 0.25 | 77 | 1006.0 |
| 20260905164836 | 80 | 248 | 2.0 | 2.0 | 0.00 | 0.00 | 0.25 | 76 | 1006.0 |
| 20260905164422 | 80 | 248 | 2.0 | 2.0 | 0.00 | 0.00 | 0.25 | 76 | 1006.0 |
| 20260905163949 | 79 | 248 | 0.0 | 0.0 | 0.00 | 0.00 | 0.25 | 80 | 1006.0 |
| 20260905163518 | 78 | 248 | 2.0 | 2.0 | 0.00 | 0.00 | 0.25 | 81 | 1006.0 |
| 20260905163048 | 78 | 248 | 2.0 | 2.0 | 0.00 | 0.00 | 0.25 | 81 | 1006.0 |
| 20260905162632 | 77 | 248 | 1.0 | 1.0 | 0.00 | 0.00 | 0.25 | 83 | 1006.0 |
| 20260905162200 | 77 | 248 | 2.0 | 2.0 | 0.00 | 0.00 | 0.25 | 85 | 1006.0 |
| 20260905161743 | 77 | 248 | 1.0 | 1.0 | 0.00 | 0.00 | 0.25 | 85 | 1006.0 |